QPF
0.00 0.00 0.00 0.00 0.00 0.00 0.00 0.00 0.00 0.00 0.00 0.01 0.01 0.01 0.02 0.03 0.03 0.02 0.02 0.04 0.04 0.04 0.07 0.10 0.06 0.04 0.02 0.02 0.02 0.02 0.03 0.03 0.04 0.05 0.05 0.01 0.01 0.02 0.02 0.01 0.02 0.02 0.03 0.04
0.01 0.01 0.00 0.00 0.00 0.00 0.00 0.00 0.00 0.00 0.01 0.01 0.01 0.01 0.01 0.01 0.01 0.01 0.03 0.04 0.04 0.03 0.03 0.03 0.02 0.02 0.01 0.01 0.01 0.01 0.02 0.03 0.03 0.05 0.04 0.01 0.01 0.02 0.02 0.02 0.02 0.02 0.02 0.03
0.01 0.01 0.00 0.00 0.00 0.00 0.00 0.00 0.00 0.00 0.00 0.01 0.01 0.01 0.01 0.01 0.00 0.01 0.01 0.01 0.03 0.03 0.03 0.02 0.01 0.01 0.01 0.01 0.00 0.01 0.02 0.04 0.02 0.04 0.03 0.02 0.02 0.03 0.03 0.03 0.03 0.03 0.03 0.04
0.01 0.01 0.01 0.01 0.00 0.00 0.00 0.00 0.00 0.00 0.01 0.01 0.01 0.01 0.01 0.00 0.00 0.00 0.00 0.01 0.01 0.02 0.02 0.01 0.01 0.01 0.01 0.01 0.01 0.02 0.05 0.05 0.03 0.04 0.03 0.03 0.03 0.03 0.03 0.05 0.05 0.05 0.04 0.03
0.01 0.01 0.01 0.00 0.00 0.00 0.00 0.00 0.00 0.00 0.01 0.01 0.01 0.01 0.01 0.00 0.00 0.00 0.00 0.01 0.01 0.01 0.01 0.01 0.01 0.01 0.01 0.01 0.02 0.04 0.04 0.03 0.03 0.03 0.04 0.04 0.04 0.04 0.05 0.06 0.06 0.05 0.04 0.04
0.01 0.00 0.00 0.00 0.00 0.00 0.00 0.01 0.01 0.00 0.01 0.02 0.01 0.01 0.02 0.02 0.01 0.00 0.01 0.01 0.01 0.00 0.00 0.00 0.01 0.01 0.01 0.02 0.04 0.04 0.03 0.03 0.03 0.04 0.05 0.07 0.07 0.07 0.07 0.07 0.07 0.07 0.06 0.05
0.00 0.00 0.00 0.00 0.01 0.01 0.01 0.01 0.01 0.01 0.01 0.01 0.01 0.01 0.02 0.02 0.01 0.01 0.01 0.01 0.00 0.00 0.00 0.00 0.00 0.01 0.02 0.03 0.03 0.03 0.03 0.03 0.04 0.06 0.07 0.07 0.09 0.09 0.08 0.08 0.08 0.08 0.07 0.07
0.00 0.00 0.00 0.00 0.00 0.01 0.01 0.01 0.01 0.01 0.01 0.01 0.01 0.01 0.01 0.01 0.01 0.01 0.01 0.00 0.00 0.00 0.00 0.00 0.00 0.00 0.01 0.01 0.01 0.01 0.02 0.03 0.05 0.06 0.08 0.09 0.09 0.09 0.08 0.07 0.07 0.07 0.07 0.06
0.00 0.00 0.00 0.00 0.00 0.00 0.00 0.00 0.00 0.01 0.01 0.01 0.01 0.01 0.00 0.00 0.00 0.00 0.00 0.00 0.00 0.00 0.00 0.00 0.00 0.01 0.01 0.00 0.00 0.01 0.01 0.01 0.03 0.07 0.07 0.07 0.07 0.08 0.08 0.07 0.06 0.06 0.06 0.05
0.00 0.00 0.01 0.01 0.00 0.00 0.00 0.00 0.00 0.01 0.01 0.01 0.01 0.01 0.01 0.00 0.00 0.00 0.01 0.00 0.00 0.00 0.00 0.00 0.00 0.01 0.01 0.01 0.01 0.01 0.01 0.02 0.02 0.03 0.04 0.04 0.05 0.05 0.06 0.05 0.05 0.04 0.04 0.03
0.01 0.01 0.01 0.01 0.01 0.00 0.00 0.00 0.00 0.01 0.01 0.01 0.01 0.01 0.00 0.00 0.00 0.00 0.01 0.00 0.00 0.00 0.00 0.00 0.00 0.00 0.01 0.01 0.01 0.02 0.02 0.02 0.02 0.02 0.03 0.04 0.04 0.04 0.04 0.04 0.03 0.03 0.04 0.03
0.01 0.00 0.01 0.01 0.00 0.00 0.00 0.00 0.00 0.01 0.01 0.01 0.01 0.01 0.00 0.00 0.00 0.01 0.01 0.01 0.01 0.00 0.00 0.00 0.00 0.00 0.01 0.01 0.01 0.02 0.02 0.03 0.04 0.04 0.03 0.03 0.04 0.03 0.02 0.02 0.03 0.04 0.04 0.04
0.00 0.01 0.01 0.01 0.01 0.00 0.00 0.00 0.00 0.00 0.01 0.01 0.01 0.00 0.00 0.02 0.02 0.03 0.03 0.02 0.01 0.00 0.00 0.00 0.01 0.01 0.01 0.01 0.02 0.03 0.03 0.03 0.03 0.03 0.02 0.02 0.02 0.02 0.02 0.03 0.03 0.03 0.03 0.03
0.00 0.01 0.01 0.01 0.00 0.00 0.00 0.01 0.01 0.01 0.02 0.02 0.01 0.00 0.00 0.01 0.01 0.02 0.03 0.02 0.00 0.00 0.00 0.01 0.01 0.01 0.01 0.02 0.03 0.03 0.03 0.03 0.02 0.01 0.01 0.01 0.02 0.02 0.03 0.03 0.03 0.03 0.03 0.03
0.01 0.01 0.01 0.00 0.00 0.00 0.00 0.00 0.00 0.00 0.00 0.01 0.00 0.00 0.00 0.00 0.00 0.01 0.03 0.02 0.01 0.01 0.01 0.01 0.01 0.02 0.02 0.03 0.03 0.03 0.02 0.02 0.01 0.01 0.01 0.01 0.01 0.01 0.02 0.02 0.03 0.03 0.03 0.03
0.00 0.00 0.01 0.00 0.00 0.00 0.00 0.00 0.00 0.00 0.00 0.00 0.00 0.00 0.00 0.00 0.01 0.02 0.03 0.03 0.02 0.02 0.02 0.02 0.02 0.02 0.02 0.03 0.03 0.02 0.01 0.01 0.01 0.01 0.00 0.01 0.01 0.01 0.02 0.02 0.02 0.03 0.03 0.03
0.00 0.00 0.01 0.01 0.00 0.01 0.00 0.00 0.00 0.00 0.00 0.00 0.00 0.00 0.00 0.00 0.01 0.02 0.02 0.03 0.02 0.02 0.02 0.03 0.03 0.03 0.02 0.02 0.02 0.01 0.01 0.00 0.00 0.00 0.00 0.00 0.01 0.01 0.01 0.01 0.02 0.02 0.03 0.03
0.01 0.01 0.01 0.01 0.01 0.01 0.00 0.00 0.00 0.00 0.00 0.00 0.00 0.00 0.00 0.00 0.01 0.01 0.01 0.02 0.03 0.02 0.02 0.02 0.02 0.02 0.02 0.02 0.01 0.01 0.00 0.00 0.00 0.00 0.01 0.01 0.00 0.01 0.01 0.02 0.02 0.03 0.03 0.04
0.01 0.01 0.02 0.02 0.02 0.01 0.00 0.00 0.00 0.00 0.00 0.00 0.00 0.00 0.00 0.01 0.01 0.01 0.02 0.01 0.04 0.02 0.02 0.02 0.02 0.01 0.01 0.01 0.00 0.00 0.00 0.00 0.00 0.00 0.01 0.00 0.01 0.01 0.01 0.01 0.03 0.03 0.03 0.03
0.00 0.01 0.01 0.01 0.02 0.01 0.01 0.01 0.01 0.01 0.02 0.01 0.00 0.00 0.00 0.00 0.01 0.01 0.01 0.01 0.04 0.02 0.01 0.02 0.02 0.01 0.01 0.00 0.00 0.00 0.00 0.00 0.00 0.00 0.01 0.01 0.01 0.01 0.01 0.01 0.02 0.02 0.02 0.02
0.01 0.01 0.01 0.02 0.02 0.01 0.01 0.01 0.02 0.03 0.02 0.01 0.01 0.00 0.01 0.01 0.01 0.01 0.01 0.01 0.02 0.02 0.01 0.01 0.01 0.01 0.00 0.00 0.00 0.00 0.00 0.00 0.00 0.00 0.01 0.01 0.01 0.01 0.01 0.01 0.02 0.02 0.01 0.02
0.01 0.01 0.01 0.01 0.02 0.01 0.01 0.01 0.02 0.02 0.02 0.01 0.01 0.01 0.01 0.01 0.01 0.01 0.01 0.01 0.02 0.02 0.01 0.01 0.00 0.00 0.00 0.00 0.00 0.00 0.01 0.00 0.00 0.00 0.00 0.01 0.01 0.01 0.01 0.02 0.02 0.02 0.01 0.02
0.02 0.02 0.01 0.01 0.01 0.01 0.01 0.01 0.01 0.01 0.01 0.01 0.02 0.01 0.01 0.01 0.02 0.01 0.01 0.01 0.01 0.01 0.00 0.00 0.00 0.00 0.00 0.00 0.00 0.00 0.00 0.00 0.00 0.00 0.00 0.01 0.00 0.01 0.01 0.02 0.02 0.01 0.01 0.01
0.01 0.01 0.02 0.02 0.01 0.01 0.01 0.02 0.01 0.01 0.01 0.01 0.01 0.01 0.01 0.02 0.02 0.02 0.02 0.01 0.01 0.01 0.00 0.00 0.00 0.00 0.00 0.00 0.00 0.00 0.00 0.00 0.00 0.00 0.01 0.01 0.00 0.00 0.01 0.02 0.02 0.02 0.02 0.01
0.01 0.01 0.02 0.02 0.02 0.01 0.01 0.02 0.03 0.03 0.02 0.01 0.01 0.01 0.01 0.01 0.01 0.01 0.01 0.01 0.01 0.00 0.00 0.00 0.00 0.01 0.01 0.01 0.01 0.01 0.00 0.00 0.01 0.01 0.00 0.00 0.00 0.00 0.00 0.01 0.02 0.02 0.02 0.02
0.02 0.02 0.02 0.02 0.01 0.01 0.01 0.01 0.02 0.03 0.03 0.02 0.01 0.01 0.01 0.01 0.01 0.01 0.01 0.01 0.01 0.01 0.01 0.01 0.01 0.01 0.01 0.01 0.01 0.01 0.01 0.00 0.00 0.00 0.00 0.00 0.00 0.00 0.00 0.01 0.01 0.02 0.03 0.03
MSLP
1010.62 1011.09 1011.34 1011.37 1011.22 1010.95 1010.64 1010.33 1010.10 1009.93 1009.84 1009.78 1009.73 1009.65 1009.53 1009.37 1009.19 1009.03 1008.92 1008.89 1008.95 1009.13 1009.41 1009.77 1010.20 1010.68 1011.19 1011.71 1012.22 1012.70 1013.15 1013.54 1013.88 1014.14 1014.35 1014.51 1014.63 1014.74 1014.86 1015.00 1015.15 1015.32 1015.50 1015.67
1010.49 1010.86 1011.04 1011.05 1010.92 1010.71 1010.49 1010.30 1010.16 1010.08 1010.03 1009.99 1009.91 1009.78 1009.60 1009.38 1009.15 1008.96 1008.83 1008.80 1008.89 1009.09 1009.39 1009.77 1010.20 1010.67 1011.15 1011.64 1012.12 1012.58 1013.02 1013.41 1013.76 1014.04 1014.27 1014.45 1014.58 1014.69 1014.79 1014.90 1015.02 1015.17 1015.32 1015.48
1010.14 1010.41 1010.53 1010.54 1010.47 1010.37 1010.30 1010.26 1010.27 1010.29 1010.30 1010.26 1010.15 1009.95 1009.68 1009.38 1009.08 1008.85 1008.71 1008.70 1008.83 1009.07 1009.42 1009.83 1010.29 1010.75 1011.20 1011.65 1012.08 1012.49 1012.89 1013.26 1013.60 1013.89 1014.12 1014.30 1014.43 1014.53 1014.60 1014.67 1014.75 1014.86 1015.00 1015.16
1009.61 1009.77 1009.84 1009.86 1009.88 1009.94 1010.05 1010.21 1010.39 1010.54 1010.61 1010.58 1010.41 1010.13 1009.76 1009.35 1008.98 1008.69 1008.55 1008.56 1008.74 1009.05 1009.47 1009.93 1010.41 1010.88 1011.32 1011.72 1012.09 1012.45 1012.79 1013.12 1013.42 1013.70 1013.92 1014.09 1014.20 1014.26 1014.30 1014.32 1014.36 1014.43 1014.54 1014.70
1008.94 1008.99 1009.02 1009.08 1009.22 1009.45 1009.76 1010.13 1010.48 1010.76 1010.91 1010.88 1010.67 1010.29 1009.81 1009.29 1008.83 1008.49 1008.34 1008.38 1008.61 1009.00 1009.49 1010.02 1010.55 1011.04 1011.46 1011.83 1012.15 1012.44 1012.72 1013.00 1013.25 1013.49 1013.68 1013.83 1013.91 1013.93 1013.92 1013.89 1013.87 1013.90 1013.98 1014.12
1008.22 1008.18 1008.18 1008.28 1008.53 1008.93 1009.44 1010.01 1010.53 1010.94 1011.15 1011.12 1010.86 1010.40 1009.81 1009.19 1008.65 1008.26 1008.09 1008.15 1008.44 1008.90 1009.47 1010.08 1010.65 1011.17 1011.59 1011.94 1012.21 1012.45 1012.67 1012.88 1013.08 1013.27 1013.43 1013.53 1013.57 1013.56 1013.49 1013.41 1013.33 1013.30 1013.34 1013.46
1007.51 1007.40 1007.39 1007.54 1007.90 1008.44 1009.12 1009.85 1010.52 1011.02 1011.29 1011.26 1010.96 1010.43 1009.76 1009.06 1008.44 1008.01 1007.83 1007.92 1008.24 1008.76 1009.40 1010.07 1010.70 1011.24 1011.67 1012.00 1012.25 1012.43 1012.59 1012.75 1012.90 1013.03 1013.14 1013.21 1013.21 1013.15 1013.04 1012.90 1012.77 1012.68 1012.67 1012.75
1006.87 1006.72 1006.72 1006.93 1007.37 1008.02 1008.82 1009.66 1010.42 1010.99 1011.29 1011.27 1010.94 1010.37 1009.65 1008.90 1008.25 1007.80 1007.61 1007.70 1008.06 1008.62 1009.30 1010.00 1010.67 1011.23 1011.67 1011.99 1012.21 1012.36 1012.47 1012.57 1012.67 1012.76 1012.83 1012.85 1012.82 1012.72 1012.56 1012.38 1012.20 1012.06 1011.99 1012.02
1006.31 1006.17 1006.20 1006.46 1006.96 1007.68 1008.54 1009.43 1010.23 1010.83 1011.14 1011.12 1010.80 1010.22 1009.49 1008.74 1008.09 1007.64 1007.46 1007.56 1007.93 1008.50 1009.18 1009.91 1010.58 1011.15 1011.58 1011.89 1012.09 1012.21 1012.28 1012.34 1012.39 1012.44 1012.46 1012.45 1012.39 1012.26 1012.08 1011.86 1011.64 1011.45 1011.33 1011.31
1005.82 1005.74 1005.83 1006.13 1006.67 1007.41 1008.27 1009.16 1009.94 1010.53 1010.83 1010.83 1010.53 1009.99 1009.31 1008.61 1008.01 1007.59 1007.43 1007.54 1007.89 1008.44 1009.10 1009.80 1010.44 1010.99 1011.41 1011.70 1011.88 1011.97 1012.02 1012.04 1012.06 1012.06 1012.05 1012.01 1011.91 1011.77 1011.56 1011.33 1011.08 1010.87 1010.71 1010.64
1005.37 1005.39 1005.56 1005.91 1006.46 1007.18 1007.99 1008.82 1009.54 1010.08 1010.37 1010.39 1010.14 1009.68 1009.11 1008.51 1008.00 1007.65 1007.53 1007.64 1007.97 1008.47 1009.07 1009.71 1010.30 1010.80 1011.18 1011.44 1011.60 1011.67 1011.69 1011.68 1011.66 1011.63 1011.58 1011.51 1011.39 1011.23 1011.02 1010.78 1010.53 1010.30 1010.12 1010.02
1004.93 1005.08 1005.34 1005.74 1006.29 1006.95 1007.68 1008.40 1009.03 1009.50 1009.76 1009.81 1009.64 1009.30 1008.87 1008.42 1008.04 1007.79 1007.72 1007.85 1008.14 1008.58 1009.10 1009.65 1010.16 1010.59 1010.92 1011.15 1011.28 1011.33 1011.33 1011.29 1011.23 1011.16 1011.08 1010.97 1010.83 1010.65 1010.44 1010.20 1009.96 1009.74 1009.56 1009.45
1004.49 1004.78 1005.14 1005.58 1006.10 1006.69 1007.30 1007.89 1008.40 1008.79 1009.02 1009.10 1009.03 1008.83 1008.57 1008.31 1008.09 1007.96 1007.97 1008.11 1008.37 1008.74 1009.17 1009.61 1010.03 1010.39 1010.67 1010.86 1010.96 1010.99 1010.96 1010.89 1010.79 1010.68 1010.54 1010.39 1010.22 1010.02 1009.81 1009.59 1009.37 1009.17 1009.01 1008.91
1004.08 1004.50 1004.94 1005.40 1005.88 1006.37 1006.85 1007.29 1007.67 1007.97 1008.18 1008.29 1008.32 1008.28 1008.21 1008.13 1008.09 1008.10 1008.19 1008.35 1008.60 1008.90 1009.24 1009.59 1009.92 1010.20 1010.42 1010.58 1010.66 1010.67 1010.61 1010.51 1010.37 1010.20 1010.00 1009.80 1009.58 1009.36 1009.14 1008.92 1008.73 1008.56 1008.44 1008.37
1003.73 1004.24 1004.73 1005.20 1005.62 1006.00 1006.34 1006.63 1006.88 1007.09 1007.26 1007.41 1007.53 1007.64 1007.74 1007.86 1007.98 1008.13 1008.31 1008.52 1008.75 1009.01 1009.27 1009.54 1009.80 1010.02 1010.20 1010.32 1010.38 1010.38 1010.30 1010.16 1009.97 1009.73 1009.47 1009.20 1008.93 1008.67 1008.43 1008.22 1008.05 1007.93 1007.85 1007.82
1003.46 1004.02 1004.54 1004.97 1005.33 1005.60 1005.80 1005.95 1006.08 1006.19 1006.33 1006.50 1006.70 1006.94 1007.20 1007.48 1007.76 1008.03 1008.30 1008.55 1008.79 1009.01 1009.23 1009.44 1009.65 1009.83 1009.98 1010.09 1010.14 1010.12 1010.02 1009.84 1009.60 1009.30 1008.97 1008.62 1008.28 1007.98 1007.71 1007.51 1007.36 1007.27 1007.24 1007.26
1003.28 1003.85 1004.34 1004.74 1005.01 1005.18 1005.26 1005.29 1005.30 1005.35 1005.45 1005.62 1005.88 1006.21 1006.60 1007.01 1007.41 1007.80 1008.14 1008.43 1008.68 1008.90 1009.09 1009.27 1009.44 1009.61 1009.75 1009.85 1009.90 1009.87 1009.75 1009.54 1009.25 1008.89 1008.49 1008.07 1007.67 1007.32 1007.02 1006.81 1006.67 1006.61 1006.62 1006.69
1003.16 1003.70 1004.15 1004.48 1004.69 1004.77 1004.76 1004.69 1004.62 1004.60 1004.68 1004.85 1005.15 1005.54 1006.00 1006.50 1007.00 1007.45 1007.85 1008.18 1008.44 1008.66 1008.85 1009.01 1009.18 1009.33 1009.48 1009.58 1009.63 1009.60 1009.47 1009.24 1008.91 1008.50 1008.05 1007.57 1007.12 1006.72 1006.40 1006.18 1006.05 1006.01 1006.05 1006.16
1003.04 1003.52 1003.92 1004.20 1004.35 1004.37 1004.30 1004.18 1004.07 1004.02 1004.07 1004.25 1004.56 1004.98 1005.49 1006.03 1006.57 1007.06 1007.49 1007.84 1008.12 1008.34 1008.52 1008.69 1008.85 1009.00 1009.15 1009.26 1009.32 1009.29 1009.16 1008.92 1008.57 1008.14 1007.65 1007.14 1006.65 1006.23 1005.89 1005.66 1005.53 1005.50 1005.57 1005.70
1002.87 1003.28 1003.63 1003.86 1003.98 1003.99 1003.90 1003.78 1003.67 1003.62 1003.67 1003.85 1004.17 1004.60 1005.11 1005.66 1006.20 1006.70 1007.13 1007.48 1007.76 1007.97 1008.15 1008.31 1008.46 1008.62 1008.76 1008.88 1008.94 1008.92 1008.79 1008.56 1008.22 1007.78 1007.29 1006.78 1006.29 1005.86 1005.52 1005.28 1005.16 1005.13 1005.20 1005.35
1002.60 1002.95 1003.25 1003.47 1003.59 1003.62 1003.58 1003.49 1003.42 1003.41 1003.49 1003.69 1004.00 1004.42 1004.91 1005.44 1005.96 1006.43 1006.84 1007.16 1007.42 1007.61 1007.77 1007.91 1008.04 1008.18 1008.32 1008.43 1008.49 1008.48 1008.38 1008.16 1007.85 1007.45 1006.99 1006.51 1006.04 1005.63 1005.30 1005.07 1004.94 1004.92 1004.99 1005.13
1002.22 1002.52 1002.80 1003.04 1003.20 1003.29 1003.33 1003.33 1003.34 1003.40 1003.53 1003.75 1004.07 1004.47 1004.93 1005.41 1005.88 1006.30 1006.65 1006.93 1007.14 1007.30 1007.41 1007.52 1007.62 1007.73 1007.84 1007.93 1008.00 1008.00 1007.92 1007.75 1007.49 1007.15 1006.75 1006.32 1005.91 1005.53 1005.23 1005.01 1004.88 1004.85 1004.90 1005.03
1001.77 1002.05 1002.35 1002.62 1002.86 1003.05 1003.19 1003.31 1003.43 1003.57 1003.76 1004.02 1004.34 1004.72 1005.14 1005.56 1005.96 1006.32 1006.60 1006.82 1006.97 1007.06 1007.12 1007.17 1007.22 1007.28 1007.36 1007.43 1007.48 1007.49 1007.45 1007.33 1007.14 1006.87 1006.56 1006.21 1005.87 1005.54 1005.27 1005.07 1004.94 1004.90 1004.93 1005.04
1001.37 1001.65 1001.97 1002.31 1002.63 1002.93 1003.21 1003.45 1003.68 1003.92 1004.18 1004.47 1004.80 1005.16 1005.52 1005.88 1006.20 1006.48 1006.68 1006.82 1006.90 1006.92 1006.91 1006.89 1006.88 1006.88 1006.91 1006.94 1006.98 1007.00 1006.99 1006.92 1006.81 1006.63 1006.41 1006.15 1005.88 1005.62 1005.39 1005.20 1005.07 1005.01 1005.02 1005.10
1001.11 1001.42 1001.79 1002.19 1002.61 1003.02 1003.41 1003.78 1004.12 1004.44 1004.76 1005.07 1005.40 1005.72 1006.03 1006.32 1006.56 1006.75 1006.88 1006.94 1006.93 1006.88 1006.79 1006.70 1006.62 1006.55 1006.52 1006.52 1006.53 1006.55 1006.56 1006.55 1006.50 1006.41 1006.28 1006.11 1005.91 1005.71 1005.51 1005.34 1005.21 1005.14 1005.13 1005.18
1001.13 1001.47 1001.89 1002.36 1002.86 1003.36 1003.84 1004.30 1004.71 1005.10 1005.45 1005.77 1006.08 1006.36 1006.62 1006.84 1007.01 1007.12 1007.16 1007.14 1007.06 1006.94 1006.78 1006.61 1006.45 1006.32 1006.23 1006.17 1006.16 1006.17 1006.20 1006.22 1006.22 1006.20 1006.14 1006.04 1005.91 1005.75 1005.59 1005.44 1005.31 1005.23 1005.20 1005.25
Thickness
5776 5770 5770 5777 5781 5782 5780 5775 5774 5780 5787 5779 5776 5776 5779 5780 5778 5775 5773 5772 5769 5767 5766 5764 5761 5759 5755 5750 5746 5743 5739 5736 5732 5729 5725 5722 5719 5717 5715 5713 5710 5707 5705 5704
5765 5766 5781 5786 5782 5777 5773 5769 5772 5778 5780 5773 5772 5773 5780 5779 5776 5775 5772 5769 5767 5764 5762 5759 5758 5755 5752 5747 5743 5740 5737 5734 5730 5727 5722 5719 5716 5713 5711 5709 5705 5703 5701 5699
5761 5776 5783 5776 5771 5767 5769 5768 5770 5769 5772 5772 5767 5766 5773 5776 5776 5775 5772 5770 5767 5762 5759 5756 5754 5752 5750 5745 5742 5740 5735 5731 5727 5723 5720 5716 5711 5707 5706 5703 5701 5699 5696 5694
5766 5776 5773 5768 5768 5768 5763 5776 5772 5767 5760 5762 5763 5753 5770 5771 5767 5768 5768 5766 5765 5762 5759 5756 5752 5749 5747 5744 5742 5737 5732 5728 5724 5719 5716 5712 5707 5703 5701 5700 5698 5695 5692 5690
5763 5770 5767 5763 5769 5771 5769 5776 5770 5765 5760 5756 5761 5752 5764 5768 5761 5763 5765 5765 5763 5761 5759 5754 5751 5748 5746 5743 5739 5734 5729 5724 5720 5716 5712 5708 5704 5702 5700 5696 5693 5690 5688 5686
5766 5775 5772 5771 5775 5774 5772 5767 5763 5762 5760 5743 5755 5749 5753 5765 5762 5764 5764 5763 5761 5759 5757 5753 5750 5747 5743 5741 5737 5732 5725 5720 5716 5712 5709 5704 5700 5696 5694 5690 5688 5685 5684 5683
5754 5764 5772 5774 5764 5767 5765 5752 5742 5740 5742 5746 5760 5750 5752 5764 5766 5763 5761 5760 5758 5756 5754 5750 5747 5743 5740 5736 5732 5728 5722 5716 5712 5708 5704 5700 5696 5692 5689 5687 5684 5681 5681 5679
5745 5750 5767 5770 5764 5760 5760 5754 5736 5728 5737 5751 5754 5746 5757 5765 5764 5763 5760 5757 5754 5752 5750 5746 5744 5740 5736 5732 5727 5723 5718 5713 5709 5704 5700 5696 5692 5690 5688 5684 5681 5679 5677 5676
5750 5752 5772 5773 5774 5768 5757 5756 5762 5747 5745 5740 5749 5752 5757 5759 5756 5755 5753 5750 5748 5747 5745 5743 5741 5737 5732 5727 5722 5718 5714 5709 5705 5701 5697 5693 5689 5686 5684 5681 5678 5675 5672 5671
5758 5746 5762 5768 5769 5766 5767 5763 5752 5741 5725 5725 5740 5744 5749 5750 5749 5749 5746 5744 5744 5743 5741 5739 5736 5733 5728 5724 5719 5715 5710 5706 5701 5698 5694 5690 5685 5682 5679 5677 5674 5671 5668 5667
5758 5743 5750 5756 5752 5754 5753 5751 5748 5746 5742 5726 5725 5741 5759 5752 5749 5746 5744 5743 5741 5739 5737 5734 5731 5728 5724 5719 5715 5710 5705 5701 5697 5693 5689 5685 5682 5679 5676 5673 5671 5668 5666 5663
5752 5745 5742 5751 5763 5766 5760 5754 5747 5731 5729 5732 5728 5737 5756 5751 5747 5744 5741 5740 5738 5735 5733 5730 5726 5723 5718 5714 5709 5705 5700 5696 5693 5689 5685 5681 5678 5675 5671 5669 5667 5665 5663 5660
5745 5734 5726 5735 5743 5751 5749 5751 5749 5743 5733 5730 5725 5734 5749 5746 5741 5738 5736 5734 5731 5728 5726 5724 5720 5716 5712 5708 5704 5700 5696 5692 5689 5685 5681 5678 5674 5671 5668 5666 5664 5661 5659 5656
5744 5735 5730 5728 5741 5749 5743 5745 5746 5739 5731 5730 5732 5736 5741 5741 5736 5734 5732 5729 5726 5722 5719 5717 5713 5709 5706 5702 5698 5695 5691 5688 5684 5680 5676 5673 5670 5667 5664 5662 5660 5658 5655 5652
5738 5732 5737 5742 5749 5749 5745 5743 5742 5737 5736 5732 5735 5736 5739 5740 5736 5733 5729 5725 5720 5716 5713 5710 5706 5702 5699 5695 5692 5689 5686 5683 5679 5675 5671 5669 5666 5663 5660 5657 5655 5653 5651 5649
5731 5727 5731 5732 5742 5743 5739 5742 5741 5739 5739 5736 5735 5734 5742 5740 5736 5729 5724 5719 5713 5710 5708 5705 5701 5696 5692 5689 5686 5684 5680 5677 5674 5670 5667 5665 5662 5658 5655 5653 5651 5648 5646 5644
5726 5720 5718 5722 5735 5732 5726 5739 5738 5737 5741 5737 5730 5735 5737 5729 5725 5722 5719 5715 5709 5706 5703 5700 5695 5691 5687 5684 5681 5678 5675 5673 5669 5665 5663 5661 5657 5654 5651 5650 5646 5643 5641 5639
5717 5715 5716 5717 5715 5702 5731 5748 5744 5737 5737 5739 5736 5733 5730 5725 5722 5720 5717 5712 5706 5702 5698 5694 5690 5685 5682 5680 5676 5673 5670 5667 5664 5661 5658 5656 5653 5649 5647 5644 5641 5638 5636 5634
5719 5711 5710 5709 5706 5713 5729 5734 5732 5725 5724 5732 5729 5726 5723 5720 5714 5712 5712 5708 5703 5698 5694 5689 5685 5681 5677 5673 5670 5668 5664 5662 5659 5655 5653 5651 5648 5645 5641 5638 5635 5634 5631 5630
5711 5709 5705 5704 5695 5696 5717 5728 5731 5723 5710 5723 5722 5717 5715 5711 5705 5706 5704 5701 5697 5692 5687 5683 5679 5675 5670 5667 5665 5661 5659 5656 5653 5651 5648 5647 5643 5640 5637 5634 5631 5630 5627 5626
5700 5698 5699 5698 5695 5706 5715 5721 5719 5701 5704 5714 5714 5711 5707 5705 5702 5701 5698 5693 5689 5684 5679 5676 5672 5668 5665 5662 5658 5655 5653 5650 5648 5646 5644 5641 5638 5635 5633 5630 5627 5625 5624 5622
5698 5697 5696 5697 5690 5695 5707 5709 5703 5701 5706 5707 5706 5704 5700 5698 5695 5693 5690 5685 5681 5677 5672 5668 5665 5662 5659 5657 5653 5649 5647 5645 5643 5641 5638 5635 5633 5631 5630 5626 5623 5622 5620 5619
5695 5695 5697 5696 5694 5696 5701 5699 5700 5700 5697 5697 5696 5696 5694 5690 5687 5685 5681 5677 5674 5670 5666 5662 5659 5655 5653 5651 5648 5644 5642 5640 5638 5635 5632 5630 5628 5626 5623 5621 5620 5618 5617 5616
5687 5688 5687 5684 5689 5692 5693 5694 5693 5692 5690 5690 5690 5688 5687 5683 5680 5677 5673 5670 5666 5663 5659 5656 5653 5650 5647 5645 5643 5640 5637 5635 5632 5629 5627 5625 5623 5621 5619 5617 5617 5616 5613 5612
5674 5676 5676 5674 5679 5681 5682 5683 5683 5683 5683 5682 5682 5682 5679 5677 5673 5670 5666 5663 5660 5656 5653 5651 5647 5644 5641 5639 5637 5635 5633 5630 5626 5624 5622 5620 5620 5618 5614 5614 5611 5610 5607 5604
5662 5662 5662 5666 5668 5667 5667 5672 5673 5672 5672 5672 5671 5671 5671 5669 5665 5662 5659 5656 5652 5649 5646 5644 5641 5639 5636 5634 5632 5630 5627 5624 5621 5619 5617 5617 5616 5614 5612 5610 5609 5604 5600 5596